owner,sensor,date,latitude,longitude,vertical_datum,sea_water_temperature,qcFlag 
NDBC,ioos:station:NOAA.NDBC:PTAT2:1,2017-08-01T01:00:00Z,27.8260,-97.0510,0.0,30.2,2 
NDBC,ioos:station:NOAA.NDBC:PTAT2:1,2017-08-01T22:00:00Z,27.8260,-97.0510,0.0,29.3,2 
NDBC,ioos:station:NOAA.NDBC:PTAT2:1,2017-08-01T23:00:00Z,27.8260,-97.0510,0.0,29.4,2 
NDBC,ioos:station:NOAA.NDBC:PTAT2:1,2017-08-02T06:00:00Z,27.8260,-97.0510,0.0,29.1,2 
NDBC,ioos:station:NOAA.NDBC:PTAT2:1,2017-08-02T07:00:00Z,27.8260,-97.0510,0.0,29.0,2 
NDBC,ioos:station:NOAA.NDBC:PTAT2:1,2017-08-03T00:00:00Z,27.8260,-97.0510,0.0,30.1,2 
NDBC,ioos:station:NOAA.NDBC:PTAT2:1,2017-08-03T03:00:00Z,27.8260,-97.0510,0.0,29.7,2 
NDBC,ioos:station:NOAA.NDBC:PTAT2:1,2017-08-03T05:00:00Z,27.8260,-97.0510,0.0,30.0,2 
NDBC,ioos:station:NOAA.NDBC:PTAT2:1,2017-08-03T06:00:00Z,27.8260,-97.0510,0.0,29.8,2 
NDBC,ioos:station:NOAA.NDBC:PTAT2:1,2017-08-03T18:00:00Z,27.8260,-97.0510,0.0,29.3,2 
NDBC,ioos:station:NOAA.NDBC:PTAT2:1,2017-08-03T20:00:00Z,27.8260,-97.0510,0.0,29.2,2 
NDBC,ioos:station:NOAA.NDBC:PTAT2:1,2017-08-03T21:00:00Z,27.8260,-97.0510,0.0,29.3,2 
NDBC,ioos:station:NOAA.NDBC:PTAT2:1,2017-08-04T11:00:00Z,27.8260,-97.0510,0.0,28.8,2 
NDBC,ioos:station:NOAA.NDBC:PTAT2:1,2017-08-04T13:00:00Z,27.8260,-97.0510,0.0,28.6,2 
NDBC,ioos:station:NOAA.NDBC:PTAT2:1,2017-08-04T16:00:00Z,27.8260,-97.0510,0.0,28.8,2 
NDBC,ioos:station:NOAA.NDBC:PTAT2:1,2017-08-04T17:00:00Z,27.8260,-97.0510,0.0,29.0,2 
NDBC,ioos:station:NOAA.NDBC:PTAT2:1,2017-08-04T23:00:00Z,27.8260,-97.0510,0.0,30.0,2 
NDBC,ioos:station:NOAA.NDBC:PTAT2:1,2017-08-05T10:00:00Z,27.8260,-97.0510,0.0,29.6,2 
NDBC,ioos:station:NOAA.NDBC:PTAT2:1,2017-08-05T11:00:00Z,27.8260,-97.0510,0.0,29.6,2 
NDBC,ioos:station:NOAA.NDBC:PTAT2:1,2017-08-05T14:00:00Z,27.8260,-97.0510,0.0,29.5,2 
NDBC,ioos:station:NOAA.NDBC:PTAT2:1,2017-08-05T21:00:00Z,27.8260,-97.0510,0.0,30.9,2 
NDBC,ioos:station:NOAA.NDBC:PTAT2:1,2017-08-05T22:00:00Z,27.8260,-97.0510,0.0,31.0,2 
NDBC,ioos:station:NOAA.NDBC:PTAT2:1,2017-08-06T03:00:00Z,27.8260,-97.0510,0.0,30.5,2 
NDBC,ioos:station:NOAA.NDBC:PTAT2:1,2017-08-06T04:00:00Z,27.8260,-97.0510,0.0,30.3,2 
NDBC,ioos:station:NOAA.NDBC:PTAT2:1,2017-08-06T05:00:00Z,27.8260,-97.0510,0.0,30.2,2 
NDBC,ioos:station:NOAA.NDBC:PTAT2:1,2017-08-06T10:00:00Z,27.8260,-97.0510,0.0,29.7,2 
NDBC,ioos:station:NOAA.NDBC:PTAT2:1,2017-08-06T11:00:00Z,27.8260,-97.0510,0.0,29.6,2 
NDBC,ioos:station:NOAA.NDBC:PTAT2:1,2017-08-06T12:00:00Z,27.8260,-97.0510,0.0,29.5,2 
NDBC,ioos:station:NOAA.NDBC:PTAT2:1,2017-08-06T13:00:00Z,27.8260,-97.0510,0.0,29.4,2 
NDBC,ioos:station:NOAA.NDBC:PTAT2:1,2017-08-06T14:00:00Z,27.8260,-97.0510,0.0,29.4,2 
NDBC,ioos:station:NOAA.NDBC:PTAT2:1,2017-08-06T15:00:00Z,27.8260,-97.0510,0.0,29.5,2 
NDBC,ioos:station:NOAA.NDBC:PTAT2:1,2017-08-06T16:00:00Z,27.8260,-97.0510,0.0,29.6,2 
NDBC,ioos:station:NOAA.NDBC:PTAT2:1,2017-08-06T17:00:00Z,27.8260,-97.0510,0.0,29.7,2 
NDBC,ioos:station:NOAA.NDBC:PTAT2:1,2017-08-06T19:00:00Z,27.8260,-97.0510,0.0,30.0,2 
NDBC,ioos:station:NOAA.NDBC:PTAT2:1,2017-08-06T20:00:00Z,27.8260,-97.0510,0.0,30.3,2 
NDBC,ioos:station:NOAA.NDBC:PTAT2:1,2017-08-06T23:00:00Z,27.8260,-97.0510,0.0,30.7,2 
NDBC,ioos:station:NOAA.NDBC:PTAT2:1,2017-08-07T01:00:00Z,27.8260,-97.0510,0.0,30.5,2 
NDBC,ioos:station:NOAA.NDBC:PTAT2:1,2017-08-07T05:00:00Z,27.8260,-97.0510,0.0,30.1,2 
NDBC,ioos:station:NOAA.NDBC:PTAT2:1,2017-08-07T08:00:00Z,27.8260,-97.0510,0.0,29.8,2 
NDBC,ioos:station:NOAA.NDBC:PTAT2:1,2017-08-07T10:00:00Z,27.8260,-97.0510,0.0,29.7,2 
NDBC,ioos:station:NOAA.NDBC:PTAT2:1,2017-08-07T11:00:00Z,27.8260,-97.0510,0.0,29.6,2 
NDBC,ioos:station:NOAA.NDBC:PTAT2:1,2017-08-07T12:00:00Z,27.8260,-97.0510,0.0,29.6,2 
NDBC,ioos:station:NOAA.NDBC:PTAT2:1,2017-08-07T13:00:00Z,27.8260,-97.0510,0.0,29.5,2 
NDBC,ioos:station:NOAA.NDBC:PTAT2:1,2017-08-07T14:00:00Z,27.8260,-97.0510,0.0,29.5,2 
NDBC,ioos:station:NOAA.NDBC:PTAT2:1,2017-08-07T15:00:00Z,27.8260,-97.0510,0.0,29.7,2 
NDBC,ioos:station:NOAA.NDBC:PTAT2:1,2017-08-07T16:00:00Z,27.8260,-97.0510,0.0,29.8,2 
NDBC,ioos:station:NOAA.NDBC:PTAT2:1,2017-08-07T17:00:00Z,27.8260,-97.0510,0.0,29.9,2 
NDBC,ioos:station:NOAA.NDBC:PTAT2:1,2017-08-07T18:00:00Z,27.8260,-97.0510,0.0,30.3,2 
NDBC,ioos:station:NOAA.NDBC:PTAT2:1,2017-08-07T19:00:00Z,27.8260,-97.0510,0.0,30.8,2 
NDBC,ioos:station:NOAA.NDBC:PTAT2:1,2017-08-07T20:00:00Z,27.8260,-97.0510,0.0,31.2,2 
NDBC,ioos:station:NOAA.NDBC:PTAT2:1,2017-08-07T22:00:00Z,27.8260,-97.0510,0.0,31.2,2 
NDBC,ioos:station:NOAA.NDBC:PTAT2:1,2017-08-07T23:00:00Z,27.8260,-97.0510,0.0,31.1,2 
NDBC,ioos:station:NOAA.NDBC:PTAT2:1,2017-08-08T01:00:00Z,27.8260,-97.0510,0.0,30.8,2 
NDBC,ioos:station:NOAA.NDBC:PTAT2:1,2017-08-08T03:00:00Z,27.8260,-97.0510,0.0,30.6,2 
NDBC,ioos:station:NOAA.NDBC:PTAT2:1,2017-08-08T04:00:00Z,27.8260,-97.0510,0.0,30.5,2 
NDBC,ioos:station:NOAA.NDBC:PTAT2:1,2017-08-08T05:00:00Z,27.8260,-97.0510,0.0,30.4,2 
NDBC,ioos:station:NOAA.NDBC:PTAT2:1,2017-08-08T06:00:00Z,27.8260,-97.0510,0.0,30.3,2 
NDBC,ioos:station:NOAA.NDBC:PTAT2:1,2017-08-08T07:00:00Z,27.8260,-97.0510,0.0,30.2,2 
NDBC,ioos:station:NOAA.NDBC:PTAT2:1,2017-08-08T08:00:00Z,27.8260,-97.0510,0.0,30.1,2 
NDBC,ioos:station:NOAA.NDBC:PTAT2:1,2017-08-08T09:00:00Z,27.8260,-97.0510,0.0,30.1,2 
NDBC,ioos:station:NOAA.NDBC:PTAT2:1,2017-08-08T10:00:00Z,27.8260,-97.0510,0.0,30.0,2 
NDBC,ioos:station:NOAA.NDBC:PTAT2:1,2017-08-08T11:00:00Z,27.8260,-97.0510,0.0,29.9,2 
NDBC,ioos:station:NOAA.NDBC:PTAT2:1,2017-08-08T13:00:00Z,27.8260,-97.0510,0.0,29.8,2 
NDBC,ioos:station:NOAA.NDBC:PTAT2:1,2017-08-08T14:00:00Z,27.8260,-97.0510,0.0,29.8,2 
NDBC,ioos:station:NOAA.NDBC:PTAT2:1,2017-08-08T15:00:00Z,27.8260,-97.0510,0.0,29.8,2 
NDBC,ioos:station:NOAA.NDBC:PTAT2:1,2017-08-08T16:00:00Z,27.8260,-97.0510,0.0,30.0,2 
NDBC,ioos:station:NOAA.NDBC:PTAT2:1,2017-08-08T17:00:00Z,27.8260,-97.0510,0.0,30.1,2 
NDBC,ioos:station:NOAA.NDBC:PTAT2:1,2017-08-08T18:00:00Z,27.8260,-97.0510,0.0,30.6,2 
NDBC,ioos:station:NOAA.NDBC:PTAT2:1,2017-08-08T19:00:00Z,27.8260,-97.0510,0.0,30.7,2 
NDBC,ioos:station:NOAA.NDBC:PTAT2:1,2017-08-08T20:00:00Z,27.8260,-97.0510,0.0,31.2,2 
NDBC,ioos:station:NOAA.NDBC:PTAT2:1,2017-08-08T21:00:00Z,27.8260,-97.0510,0.0,31.3,2 
NDBC,ioos:station:NOAA.NDBC:PTAT2:1,2017-08-08T22:00:00Z,27.8260,-97.0510,0.0,31.5,2 
NDBC,ioos:station:NOAA.NDBC:PTAT2:1,2017-08-08T23:00:00Z,27.8260,-97.0510,0.0,31.6,2 
NDBC,ioos:station:NOAA.NDBC:PTAT2:1,2017-08-09T03:00:00Z,27.8260,-97.0510,0.0,31.5,2 
NDBC,ioos:station:NOAA.NDBC:PTAT2:1,2017-08-09T04:00:00Z,27.8260,-97.0510,0.0,31.4,2 
NDBC,ioos:station:NOAA.NDBC:PTAT2:1,2017-08-09T05:00:00Z,27.8260,-97.0510,0.0,31.2,2 
NDBC,ioos:station:NOAA.NDBC:PTAT2:1,2017-08-09T06:00:00Z,27.8260,-97.0510,0.0,31.1,2 
NDBC,ioos:station:NOAA.NDBC:PTAT2:1,2017-08-09T07:00:00Z,27.8260,-97.0510,0.0,31.0,2 
NDBC,ioos:station:NOAA.NDBC:PTAT2:1,2017-08-09T08:00:00Z,27.8260,-97.0510,0.0,30.9,2 
NDBC,ioos:station:NOAA.NDBC:PTAT2:1,2017-08-09T09:00:00Z,27.8260,-97.0510,0.0,30.9,2 
NDBC,ioos:station:NOAA.NDBC:PTAT2:1,2017-08-09T10:00:00Z,27.8260,-97.0510,0.0,30.7,2 
NDBC,ioos:station:NOAA.NDBC:PTAT2:1,2017-08-09T11:00:00Z,27.8260,-97.0510,0.0,30.7,2 
NDBC,ioos:station:NOAA.NDBC:PTAT2:1,2017-08-09T12:00:00Z,27.8260,-97.0510,0.0,30.6,2 
NDBC,ioos:station:NOAA.NDBC:PTAT2:1,2017-08-09T13:00:00Z,27.8260,-97.0510,0.0,30.4,2 
NDBC,ioos:station:NOAA.NDBC:PTAT2:1,2017-08-09T14:00:00Z,27.8260,-97.0510,0.0,30.4,2 
NDBC,ioos:station:NOAA.NDBC:PTAT2:1,2017-08-09T15:00:00Z,27.8260,-97.0510,0.0,30.3,2 
NDBC,ioos:station:NOAA.NDBC:PTAT2:1,2017-08-09T16:00:00Z,27.8260,-97.0510,0.0,30.5,2 
NDBC,ioos:station:NOAA.NDBC:PTAT2:1,2017-08-09T17:00:00Z,27.8260,-97.0510,0.0,30.6,2 
NDBC,ioos:station:NOAA.NDBC:PTAT2:1,2017-08-10T10:00:00Z,27.8260,-97.0510,0.0,29.9,2 
NDBC,ioos:station:NOAA.NDBC:PTAT2:1,2017-08-10T14:00:00Z,27.8260,-97.0510,0.0,29.8,2 
NDBC,ioos:station:NOAA.NDBC:PTAT2:1,2017-08-10T17:00:00Z,27.8260,-97.0510,0.0,29.9,2 
NDBC,ioos:station:NOAA.NDBC:PTAT2:1,2017-08-10T18:00:00Z,27.8260,-97.0510,0.0,30.0,2 
NDBC,ioos:station:NOAA.NDBC:PTAT2:1,2017-08-10T20:00:00Z,27.8260,-97.0510,0.0,30.3,2 
NDBC,ioos:station:NOAA.NDBC:PTAT2:1,2017-08-10T21:00:00Z,27.8260,-97.0510,0.0,30.4,2 
NDBC,ioos:station:NOAA.NDBC:PTAT2:1,2017-08-10T22:00:00Z,27.8260,-97.0510,0.0,30.4,2 
NDBC,ioos:station:NOAA.NDBC:PTAT2:1,2017-08-10T23:00:00Z,27.8260,-97.0510,0.0,30.4,2 
NDBC,ioos:station:NOAA.NDBC:PTAT2:1,2017-08-11T00:00:00Z,27.8260,-97.0510,0.0,30.4,2 
NDBC,ioos:station:NOAA.NDBC:PTAT2:1,2017-08-11T01:00:00Z,27.8260,-97.0510,0.0,30.3,2 
NDBC,ioos:station:NOAA.NDBC:PTAT2:1,2017-08-11T02:00:00Z,27.8260,-97.0510,0.0,30.3,2 
NDBC,ioos:station:NOAA.NDBC:PTAT2:1,2017-08-11T03:00:00Z,27.8260,-97.0510,0.0,30.2,2 
NDBC,ioos:station:NOAA.NDBC:PTAT2:1,2017-08-11T04:00:00Z,27.8260,-97.0510,0.0,30.2,2 
NDBC,ioos:station:NOAA.NDBC:PTAT2:1,2017-08-11T05:00:00Z,27.8260,-97.0510,0.0,30.2,2 
NDBC,ioos:station:NOAA.NDBC:PTAT2:1,2017-08-11T07:00:00Z,27.8260,-97.0510,0.0,30.4,2 
NDBC,ioos:station:NOAA.NDBC:PTAT2:1,2017-08-11T08:00:00Z,27.8260,-97.0510,0.0,30.3,2 
NDBC,ioos:station:NOAA.NDBC:PTAT2:1,2017-08-11T09:00:00Z,27.8260,-97.0510,0.0,30.2,2 
NDBC,ioos:station:NOAA.NDBC:PTAT2:1,2017-08-11T10:00:00Z,27.8260,-97.0510,0.0,30.3,2 
NDBC,ioos:station:NOAA.NDBC:PTAT2:1,2017-08-11T11:00:00Z,27.8260,-97.0510,0.0,30.2,2 
NDBC,ioos:station:NOAA.NDBC:PTAT2:1,2017-08-11T12:00:00Z,27.8260,-97.0510,0.0,30.2,2 
NDBC,ioos:station:NOAA.NDBC:PTAT2:1,2017-08-11T13:00:00Z,27.8260,-97.0510,0.0,30.2,2 
NDBC,ioos:station:NOAA.NDBC:PTAT2:1,2017-08-11T14:00:00Z,27.8260,-97.0510,0.0,30.2,2 
NDBC,ioos:station:NOAA.NDBC:PTAT2:1,2017-08-11T15:00:00Z,27.8260,-97.0510,0.0,30.3,2 
NDBC,ioos:station:NOAA.NDBC:PTAT2:1,2017-08-11T16:00:00Z,27.8260,-97.0510,0.0,30.4,2 
NDBC,ioos:station:NOAA.NDBC:PTAT2:1,2017-08-11T17:00:00Z,27.8260,-97.0510,0.0,30.6,2 
NDBC,ioos:station:NOAA.NDBC:PTAT2:1,2017-08-11T18:00:00Z,27.8260,-97.0510,0.0,30.8,2 
NDBC,ioos:station:NOAA.NDBC:PTAT2:1,2017-08-11T20:00:00Z,27.8260,-97.0510,0.0,31.4,2 
NDBC,ioos:station:NOAA.NDBC:PTAT2:1,2017-08-11T21:00:00Z,27.8260,-97.0510,0.0,31.8,2 
NDBC,ioos:station:NOAA.NDBC:PTAT2:1,2017-08-11T22:00:00Z,27.8260,-97.0510,0.0,31.6,2 
NDBC,ioos:station:NOAA.NDBC:PTAT2:1,2017-08-11T23:00:00Z,27.8260,-97.0510,0.0,31.9,2 
NDBC,ioos:station:NOAA.NDBC:PTAT2:1,2017-08-12T00:00:00Z,27.8260,-97.0510,0.0,31.8,2 
NDBC,ioos:station:NOAA.NDBC:PTAT2:1,2017-08-12T01:00:00Z,27.8260,-97.0510,0.0,31.7,2 
NDBC,ioos:station:NOAA.NDBC:PTAT2:1,2017-08-12T02:00:00Z,27.8260,-97.0510,0.0,31.6,2 
NDBC,ioos:station:NOAA.NDBC:PTAT2:1,2017-08-12T03:00:00Z,27.8260,-97.0510,0.0,31.5,2 
NDBC,ioos:station:NOAA.NDBC:PTAT2:1,2017-08-12T05:00:00Z,27.8260,-97.0510,0.0,31.3,2 
NDBC,ioos:station:NOAA.NDBC:PTAT2:1,2017-08-12T06:00:00Z,27.8260,-97.0510,0.0,31.2,2 
NDBC,ioos:station:NOAA.NDBC:PTAT2:1,2017-08-12T07:00:00Z,27.8260,-97.0510,0.0,31.0,2 
NDBC,ioos:station:NOAA.NDBC:PTAT2:1,2017-08-12T08:00:00Z,27.8260,-97.0510,0.0,30.9,2 
NDBC,ioos:station:NOAA.NDBC:PTAT2:1,2017-08-12T09:00:00Z,27.8260,-97.0510,0.0,30.7,2 
NDBC,ioos:station:NOAA.NDBC:PTAT2:1,2017-08-12T10:00:00Z,27.8260,-97.0510,0.0,30.6,2 
NDBC,ioos:station:NOAA.NDBC:PTAT2:1,2017-08-12T11:00:00Z,27.8260,-97.0510,0.0,30.5,2 
NDBC,ioos:station:NOAA.NDBC:PTAT2:1,2017-08-12T12:00:00Z,27.8260,-97.0510,0.0,30.4,2 
NDBC,ioos:station:NOAA.NDBC:PTAT2:1,2017-08-12T13:00:00Z,27.8260,-97.0510,0.0,30.4,2 
NDBC,ioos:station:NOAA.NDBC:PTAT2:1,2017-08-12T14:00:00Z,27.8260,-97.0510,0.0,30.1,2 
NDBC,ioos:station:NOAA.NDBC:PTAT2:1,2017-08-12T15:00:00Z,27.8260,-97.0510,0.0,30.2,2 
NDBC,ioos:station:NOAA.NDBC:PTAT2:1,2017-08-12T16:00:00Z,27.8260,-97.0510,0.0,30.3,2 
NDBC,ioos:station:NOAA.NDBC:PTAT2:1,2017-08-12T17:00:00Z,27.8260,-97.0510,0.0,30.5,2 
NDBC,ioos:station:NOAA.NDBC:PTAT2:1,2017-08-12T18:00:00Z,27.8260,-97.0510,0.0,30.8,2 
NDBC,ioos:station:NOAA.NDBC:PTAT2:1,2017-08-12T19:00:00Z,27.8260,-97.0510,0.0,31.0,2 
NDBC,ioos:station:NOAA.NDBC:PTAT2:1,2017-08-12T20:00:00Z,27.8260,-97.0510,0.0,31.3,2 
NDBC,ioos:station:NOAA.NDBC:PTAT2:1,2017-08-12T21:00:00Z,27.8260,-97.0510,0.0,31.5,2 
NDBC,ioos:station:NOAA.NDBC:PTAT2:1,2017-08-12T22:00:00Z,27.8260,-97.0510,0.0,31.6,2 
NDBC,ioos:station:NOAA.NDBC:PTAT2:1,2017-08-12T23:00:00Z,27.8260,-97.0510,0.0,31.7,2 
NDBC,ioos:station:NOAA.NDBC:PTAT2:1,2017-08-13T00:00:00Z,27.8260,-97.0510,0.0,31.6,2 
NDBC,ioos:station:NOAA.NDBC:PTAT2:1,2017-08-13T01:00:00Z,27.8260,-97.0510,0.0,31.5,2 
NDBC,ioos:station:NOAA.NDBC:PTAT2:1,2017-08-13T02:00:00Z,27.8260,-97.0510,0.0,31.3,2 
NDBC,ioos:station:NOAA.NDBC:PTAT2:1,2017-08-13T03:00:00Z,27.8260,-97.0510,0.0,31.2,2 
NDBC,ioos:station:NOAA.NDBC:PTAT2:1,2017-08-13T04:00:00Z,27.8260,-97.0510,0.0,31.0,2 
NDBC,ioos:station:NOAA.NDBC:PTAT2:1,2017-08-13T05:00:00Z,27.8260,-97.0510,0.0,30.8,2 
NDBC,ioos:station:NOAA.NDBC:PTAT2:1,2017-08-13T06:00:00Z,27.8260,-97.0510,0.0,30.7,2 
NDBC,ioos:station:NOAA.NDBC:PTAT2:1,2017-08-13T07:00:00Z,27.8260,-97.0510,0.0,30.6,2 
NDBC,ioos:station:NOAA.NDBC:PTAT2:1,2017-08-13T08:00:00Z,27.8260,-97.0510,0.0,30.4,2 
NDBC,ioos:station:NOAA.NDBC:PTAT2:1,2017-08-13T09:00:00Z,27.8260,-97.0510,0.0,30.3,2 
NDBC,ioos:station:NOAA.NDBC:PTAT2:1,2017-08-13T10:00:00Z,27.8260,-97.0510,0.0,30.2,2 
NDBC,ioos:station:NOAA.NDBC:PTAT2:1,2017-08-13T11:00:00Z,27.8260,-97.0510,0.0,30.0,2 
NDBC,ioos:station:NOAA.NDBC:PTAT2:1,2017-08-13T12:00:00Z,27.8260,-97.0510,0.0,29.9,2 
NDBC,ioos:station:NOAA.NDBC:PTAT2:1,2017-08-13T13:00:00Z,27.8260,-97.0510,0.0,29.9,2 
NDBC,ioos:station:NOAA.NDBC:PTAT2:1,2017-08-13T14:00:00Z,27.8260,-97.0510,0.0,29.7,2 
NDBC,ioos:station:NOAA.NDBC:PTAT2:1,2017-08-13T15:00:00Z,27.8260,-97.0510,0.0,29.8,2 
NDBC,ioos:station:NOAA.NDBC:PTAT2:1,2017-08-13T16:00:00Z,27.8260,-97.0510,0.0,30.0,2 
NDBC,ioos:station:NOAA.NDBC:PTAT2:1,2017-08-13T17:00:00Z,27.8260,-97.0510,0.0,30.1,2 
NDBC,ioos:station:NOAA.NDBC:PTAT2:1,2017-08-13T18:00:00Z,27.8260,-97.0510,0.0,30.4,2 
NDBC,ioos:station:NOAA.NDBC:PTAT2:1,2017-08-13T19:00:00Z,27.8260,-97.0510,0.0,30.6,2 
NDBC,ioos:station:NOAA.NDBC:PTAT2:1,2017-08-13T20:00:00Z,27.8260,-97.0510,0.0,30.9,2 
NDBC,ioos:station:NOAA.NDBC:PTAT2:1,2017-08-13T21:00:00Z,27.8260,-97.0510,0.0,31.0,2 
NDBC,ioos:station:NOAA.NDBC:PTAT2:1,2017-08-13T22:00:00Z,27.8260,-97.0510,0.0,31.1,2 
NDBC,ioos:station:NOAA.NDBC:PTAT2:1,2017-08-13T23:00:00Z,27.8260,-97.0510,0.0,31.2,2 
NDBC,ioos:station:NOAA.NDBC:PTAT2:1,2017-08-14T00:00:00Z,27.8260,-97.0510,0.0,31.2,2 
NDBC,ioos:station:NOAA.NDBC:PTAT2:1,2017-08-14T01:00:00Z,27.8260,-97.0510,0.0,31.1,2 
NDBC,ioos:station:NOAA.NDBC:PTAT2:1,2017-08-14T02:00:00Z,27.8260,-97.0510,0.0,30.9,2 
NDBC,ioos:station:NOAA.NDBC:PTAT2:1,2017-08-14T03:00:00Z,27.8260,-97.0510,0.0,30.8,2 
NDBC,ioos:station:NOAA.NDBC:PTAT2:1,2017-08-14T04:00:00Z,27.8260,-97.0510,0.0,30.6,2 
NDBC,ioos:station:NOAA.NDBC:PTAT2:1,2017-08-14T05:00:00Z,27.8260,-97.0510,0.0,30.5,2 
NDBC,ioos:station:NOAA.NDBC:PTAT2:1,2017-08-14T06:00:00Z,27.8260,-97.0510,0.0,30.3,2 
NDBC,ioos:station:NOAA.NDBC:PTAT2:1,2017-08-14T07:00:00Z,27.8260,-97.0510,0.0,30.2,2 
NDBC,ioos:station:NOAA.NDBC:PTAT2:1,2017-08-14T08:00:00Z,27.8260,-97.0510,0.0,30.1,2 
NDBC,ioos:station:NOAA.NDBC:PTAT2:1,2017-08-14T09:00:00Z,27.8260,-97.0510,0.0,30.0,2 
NDBC,ioos:station:NOAA.NDBC:PTAT2:1,2017-08-14T10:00:00Z,27.8260,-97.0510,0.0,29.8,2 
NDBC,ioos:station:NOAA.NDBC:PTAT2:1,2017-08-14T11:00:00Z,27.8260,-97.0510,0.0,29.7,2 
NDBC,ioos:station:NOAA.NDBC:PTAT2:1,2017-08-14T12:00:00Z,27.8260,-97.0510,0.0,29.6,2 
NDBC,ioos:station:NOAA.NDBC:PTAT2:1,2017-08-14T13:00:00Z,27.8260,-97.0510,0.0,29.5,2 
NDBC,ioos:station:NOAA.NDBC:PTAT2:1,2017-08-14T14:00:00Z,27.8260,-97.0510,0.0,29.5,2 
NDBC,ioos:station:NOAA.NDBC:PTAT2:1,2017-08-14T15:00:00Z,27.8260,-97.0510,0.0,29.5,2 
NDBC,ioos:station:NOAA.NDBC:PTAT2:1,2017-08-14T16:00:00Z,27.8260,-97.0510,0.0,29.7,2 
NDBC,ioos:station:NOAA.NDBC:PTAT2:1,2017-08-14T17:00:00Z,27.8260,-97.0510,0.0,29.9,2 
NDBC,ioos:station:NOAA.NDBC:PTAT2:1,2017-08-14T18:00:00Z,27.8260,-97.0510,0.0,30.1,2 
NDBC,ioos:station:NOAA.NDBC:PTAT2:1,2017-08-14T19:00:00Z,27.8260,-97.0510,0.0,30.4,2 
NDBC,ioos:station:NOAA.NDBC:PTAT2:1,2017-08-14T20:00:00Z,27.8260,-97.0510,0.0,30.7,2 
NDBC,ioos:station:NOAA.NDBC:PTAT2:1,2017-08-14T21:00:00Z,27.8260,-97.0510,0.0,30.8,2 
NDBC,ioos:station:NOAA.NDBC:PTAT2:1,2017-08-14T22:00:00Z,27.8260,-97.0510,0.0,31.0,2 
NDBC,ioos:station:NOAA.NDBC:PTAT2:1,2017-08-14T23:00:00Z,27.8260,-97.0510,0.0,31.1,2 
NDBC,ioos:station:NOAA.NDBC:PTAT2:1,2017-08-15T00:00:00Z,27.8260,-97.0510,0.0,30.9,2 
NDBC,ioos:station:NOAA.NDBC:PTAT2:1,2017-08-15T01:00:00Z,27.8260,-97.0510,0.0,30.8,2 
NDBC,ioos:station:NOAA.NDBC:PTAT2:1,2017-08-15T02:00:00Z,27.8260,-97.0510,0.0,30.6,2 
NDBC,ioos:station:NOAA.NDBC:PTAT2:1,2017-08-15T03:00:00Z,27.8260,-97.0510,0.0,30.5,2 
NDBC,ioos:station:NOAA.NDBC:PTAT2:1,2017-08-15T04:00:00Z,27.8260,-97.0510,0.0,30.4,2 
NDBC,ioos:station:NOAA.NDBC:PTAT2:1,2017-08-15T05:00:00Z,27.8260,-97.0510,0.0,30.3,2 
NDBC,ioos:station:NOAA.NDBC:PTAT2:1,2017-08-15T07:00:00Z,27.8260,-97.0510,0.0,30.0,2 
NDBC,ioos:station:NOAA.NDBC:PTAT2:1,2017-08-15T08:00:00Z,27.8260,-97.0510,0.0,29.9,2 
NDBC,ioos:station:NOAA.NDBC:PTAT2:1,2017-08-15T09:00:00Z,27.8260,-97.0510,0.0,29.8,2 
NDBC,ioos:station:NOAA.NDBC:PTAT2:1,2017-08-15T10:00:00Z,27.8260,-97.0510,0.0,29.6,2 
NDBC,ioos:station:NOAA.NDBC:PTAT2:1,2017-08-15T11:00:00Z,27.8260,-97.0510,0.0,29.5,2 
NDBC,ioos:station:NOAA.NDBC:PTAT2:1,2017-08-15T12:00:00Z,27.8260,-97.0510,0.0,29.4,2 
NDBC,ioos:station:NOAA.NDBC:PTAT2:1,2017-08-15T13:00:00Z,27.8260,-97.0510,0.0,29.3,2 
NDBC,ioos:station:NOAA.NDBC:PTAT2:1,2017-08-15T14:00:00Z,27.8260,-97.0510,0.0,29.3,2 
NDBC,ioos:station:NOAA.NDBC:PTAT2:1,2017-08-15T15:00:00Z,27.8260,-97.0510,0.0,29.4,2 
NDBC,ioos:station:NOAA.NDBC:PTAT2:1,2017-08-15T16:00:00Z,27.8260,-97.0510,0.0,29.6,2 
NDBC,ioos:station:NOAA.NDBC:PTAT2:1,2017-08-15T17:00:00Z,27.8260,-97.0510,0.0,29.8,2 
NDBC,ioos:station:NOAA.NDBC:PTAT2:1,2017-08-15T19:00:00Z,27.8260,-97.0510,0.0,30.4,2 
NDBC,ioos:station:NOAA.NDBC:PTAT2:1,2017-08-15T20:00:00Z,27.8260,-97.0510,0.0,30.7,2 
NDBC,ioos:station:NOAA.NDBC:PTAT2:1,2017-08-15T21:00:00Z,27.8260,-97.0510,0.0,31.0,2 
NDBC,ioos:station:NOAA.NDBC:PTAT2:1,2017-08-15T22:00:00Z,27.8260,-97.0510,0.0,31.0,2 
NDBC,ioos:station:NOAA.NDBC:PTAT2:1,2017-08-15T23:00:00Z,27.8260,-97.0510,0.0,31.1,2 
NDBC,ioos:station:NOAA.NDBC:PTAT2:1,2017-08-16T01:00:00Z,27.8260,-97.0510,0.0,31.0,2 
NDBC,ioos:station:NOAA.NDBC:PTAT2:1,2017-08-16T02:00:00Z,27.8260,-97.0510,0.0,30.8,2 
NDBC,ioos:station:NOAA.NDBC:PTAT2:1,2017-08-16T03:00:00Z,27.8260,-97.0510,0.0,30.7,2 
NDBC,ioos:station:NOAA.NDBC:PTAT2:1,2017-08-16T04:00:00Z,27.8260,-97.0510,0.0,30.5,2 
NDBC,ioos:station:NOAA.NDBC:PTAT2:1,2017-08-16T05:00:00Z,27.8260,-97.0510,0.0,30.4,2 
NDBC,ioos:station:NOAA.NDBC:PTAT2:1,2017-08-16T06:00:00Z,27.8260,-97.0510,0.0,30.3,2 
NDBC,ioos:station:NOAA.NDBC:PTAT2:1,2017-08-16T07:00:00Z,27.8260,-97.0510,0.0,30.2,2 
NDBC,ioos:station:NOAA.NDBC:PTAT2:1,2017-08-16T08:00:00Z,27.8260,-97.0510,0.0,30.1,2 
NDBC,ioos:station:NOAA.NDBC:PTAT2:1,2017-08-16T09:00:00Z,27.8260,-97.0510,0.0,30.0,2 
NDBC,ioos:station:NOAA.NDBC:PTAT2:1,2017-08-16T10:00:00Z,27.8260,-97.0510,0.0,29.8,2 
NDBC,ioos:station:NOAA.NDBC:PTAT2:1,2017-08-16T11:00:00Z,27.8260,-97.0510,0.0,29.7,2 
NDBC,ioos:station:NOAA.NDBC:PTAT2:1,2017-08-16T12:00:00Z,27.8260,-97.0510,0.0,29.6,2 
NDBC,ioos:station:NOAA.NDBC:PTAT2:1,2017-08-16T13:00:00Z,27.8260,-97.0510,0.0,29.5,2 
NDBC,ioos:station:NOAA.NDBC:PTAT2:1,2017-08-16T14:00:00Z,27.8260,-97.0510,0.0,29.5,2 
NDBC,ioos:station:NOAA.NDBC:PTAT2:1,2017-08-16T15:00:00Z,27.8260,-97.0510,0.0,29.6,2 
NDBC,ioos:station:NOAA.NDBC:PTAT2:1,2017-08-16T16:00:00Z,27.8260,-97.0510,0.0,29.8,2 
NDBC,ioos:station:NOAA.NDBC:PTAT2:1,2017-08-16T17:00:00Z,27.8260,-97.0510,0.0,30.0,2 
NDBC,ioos:station:NOAA.NDBC:PTAT2:1,2017-08-16T20:00:00Z,27.8260,-97.0510,0.0,31.1,2 
NDBC,ioos:station:NOAA.NDBC:PTAT2:1,2017-08-16T21:00:00Z,27.8260,-97.0510,0.0,31.2,2 
NDBC,ioos:station:NOAA.NDBC:PTAT2:1,2017-08-16T22:00:00Z,27.8260,-97.0510,0.0,31.0,2 
NDBC,ioos:station:NOAA.NDBC:PTAT2:1,2017-08-17T04:00:00Z,27.8260,-97.0510,0.0,30.5,2 
NDBC,ioos:station:NOAA.NDBC:PTAT2:1,2017-08-17T05:00:00Z,27.8260,-97.0510,0.0,30.4,2 
NDBC,ioos:station:NOAA.NDBC:PTAT2:1,2017-08-17T06:00:00Z,27.8260,-97.0510,0.0,30.3,2 
NDBC,ioos:station:NOAA.NDBC:PTAT2:1,2017-08-17T07:00:00Z,27.8260,-97.0510,0.0,30.1,2 
NDBC,ioos:station:NOAA.NDBC:PTAT2:1,2017-08-17T08:00:00Z,27.8260,-97.0510,0.0,30.0,2 
NDBC,ioos:station:NOAA.NDBC:PTAT2:1,2017-08-17T09:00:00Z,27.8260,-97.0510,0.0,29.9,2 
NDBC,ioos:station:NOAA.NDBC:PTAT2:1,2017-08-17T10:00:00Z,27.8260,-97.0510,0.0,29.7,2 
NDBC,ioos:station:NOAA.NDBC:PTAT2:1,2017-08-17T11:00:00Z,27.8260,-97.0510,0.0,29.6,2 
NDBC,ioos:station:NOAA.NDBC:PTAT2:1,2017-08-17T12:00:00Z,27.8260,-97.0510,0.0,29.7,2 
NDBC,ioos:station:NOAA.NDBC:PTAT2:1,2017-08-17T13:00:00Z,27.8260,-97.0510,0.0,29.6,2 
NDBC,ioos:station:NOAA.NDBC:PTAT2:1,2017-08-17T15:00:00Z,27.8260,-97.0510,0.0,29.7,2 
NDBC,ioos:station:NOAA.NDBC:PTAT2:1,2017-08-17T16:00:00Z,27.8260,-97.0510,0.0,29.8,2 
NDBC,ioos:station:NOAA.NDBC:PTAT2:1,2017-08-17T17:00:00Z,27.8260,-97.0510,0.0,30.0,2 
NDBC,ioos:station:NOAA.NDBC:PTAT2:1,2017-08-17T18:00:00Z,27.8260,-97.0510,0.0,30.3,2 
NDBC,ioos:station:NOAA.NDBC:PTAT2:1,2017-08-17T19:00:00Z,27.8260,-97.0510,0.0,30.4,2 
NDBC,ioos:station:NOAA.NDBC:PTAT2:1,2017-08-17T20:00:00Z,27.8260,-97.0510,0.0,30.8,2 
NDBC,ioos:station:NOAA.NDBC:PTAT2:1,2017-08-17T21:00:00Z,27.8260,-97.0510,0.0,30.8,2 
NDBC,ioos:station:NOAA.NDBC:PTAT2:1,2017-08-18T00:00:00Z,27.8260,-97.0510,0.0,30.8,2 
NDBC,ioos:station:NOAA.NDBC:PTAT2:1,2017-08-18T01:00:00Z,27.8260,-97.0510,0.0,30.8,2 
NDBC,ioos:station:NOAA.NDBC:PTAT2:1,2017-08-18T03:00:00Z,27.8260,-97.0510,0.0,30.7,2 
NDBC,ioos:station:NOAA.NDBC:PTAT2:1,2017-08-18T04:00:00Z,27.8260,-97.0510,0.0,30.6,2 
NDBC,ioos:station:NOAA.NDBC:PTAT2:1,2017-08-18T05:00:00Z,27.8260,-97.0510,0.0,30.4,2 
NDBC,ioos:station:NOAA.NDBC:PTAT2:1,2017-08-18T06:00:00Z,27.8260,-97.0510,0.0,30.3,2 
NDBC,ioos:station:NOAA.NDBC:PTAT2:1,2017-08-18T07:00:00Z,27.8260,-97.0510,0.0,30.2,2 
NDBC,ioos:station:NOAA.NDBC:PTAT2:1,2017-08-18T08:00:00Z,27.8260,-97.0510,0.0,29.9,2 
NDBC,ioos:station:NOAA.NDBC:PTAT2:1,2017-08-18T09:00:00Z,27.8260,-97.0510,0.0,29.9,2 
NDBC,ioos:station:NOAA.NDBC:PTAT2:1,2017-08-18T10:00:00Z,27.8260,-97.0510,0.0,29.8,2 
NDBC,ioos:station:NOAA.NDBC:PTAT2:1,2017-08-18T11:00:00Z,27.8260,-97.0510,0.0,29.7,2 
NDBC,ioos:station:NOAA.NDBC:PTAT2:1,2017-08-18T12:00:00Z,27.8260,-97.0510,0.0,29.7,2 
NDBC,ioos:station:NOAA.NDBC:PTAT2:1,2017-08-18T13:00:00Z,27.8260,-97.0510,0.0,29.6,2 
NDBC,ioos:station:NOAA.NDBC:PTAT2:1,2017-08-18T14:00:00Z,27.8260,-97.0510,0.0,29.5,2 
NDBC,ioos:station:NOAA.NDBC:PTAT2:1,2017-08-18T15:00:00Z,27.8260,-97.0510,0.0,29.6,2 
NDBC,ioos:station:NOAA.NDBC:PTAT2:1,2017-08-18T16:00:00Z,27.8260,-97.0510,0.0,29.8,2 
NDBC,ioos:station:NOAA.NDBC:PTAT2:1,2017-08-18T17:00:00Z,27.8260,-97.0510,0.0,30.0,2 
NDBC,ioos:station:NOAA.NDBC:PTAT2:1,2017-08-18T18:00:00Z,27.8260,-97.0510,0.0,30.4,2 
NDBC,ioos:station:NOAA.NDBC:PTAT2:1,2017-08-18T19:00:00Z,27.8260,-97.0510,0.0,30.7,2 
NDBC,ioos:station:NOAA.NDBC:PTAT2:1,2017-08-18T20:00:00Z,27.8260,-97.0510,0.0,30.8,2 
NDBC,ioos:station:NOAA.NDBC:PTAT2:1,2017-08-18T21:00:00Z,27.8260,-97.0510,0.0,31.6,2 
NDBC,ioos:station:NOAA.NDBC:PTAT2:1,2017-08-18T22:00:00Z,27.8260,-97.0510,0.0,31.7,2 
NDBC,ioos:station:NOAA.NDBC:PTAT2:1,2017-08-18T23:00:00Z,27.8260,-97.0510,0.0,31.5,2 
NDBC,ioos:station:NOAA.NDBC:PTAT2:1,2017-08-19T00:00:00Z,27.8260,-97.0510,0.0,31.5,2 
NDBC,ioos:station:NOAA.NDBC:PTAT2:1,2017-08-19T01:00:00Z,27.8260,-97.0510,0.0,31.4,2 
NDBC,ioos:station:NOAA.NDBC:PTAT2:1,2017-08-19T02:00:00Z,27.8260,-97.0510,0.0,31.1,2 
NDBC,ioos:station:NOAA.NDBC:PTAT2:1,2017-08-19T03:00:00Z,27.8260,-97.0510,0.0,31.1,2 
NDBC,ioos:station:NOAA.NDBC:PTAT2:1,2017-08-19T04:00:00Z,27.8260,-97.0510,0.0,30.6,2 
NDBC,ioos:station:NOAA.NDBC:PTAT2:1,2017-08-19T05:00:00Z,27.8260,-97.0510,0.0,30.6,2 
NDBC,ioos:station:NOAA.NDBC:PTAT2:1,2017-08-19T06:00:00Z,27.8260,-97.0510,0.0,30.4,2 